This demonstration page uses our WeatherBlox Daily Observations layout. Learn more.

Left ArrowRight Arrow

34.74481, -87.66753

Hourly Observations for May 2, 2019

Temp ( °F °C ) Dew Point ( °F °C ) Humidity (%) Winds ( mph kmh ) Pressure ( in mb ) Visibility ( mi km ) Precip ( " mm )
12:53 am 00:53 Clear 65 18.3 62 16.7 90 90 Calm 30.12 1020 10 16 0.00 0.00
2:53 am 02:53 Clear 64 17.8 62 16.7 93 93 ENE 3 6 30.09 1019 10 16 0.00 0.00
3:53 am 03:53 Clear 65 18.3 62 16.7 90 90 Calm 30.10 1019 10 16 0.00 0.00
4:53 am 04:53 Clear 66 18.9 63 17.2 90 90 SE 5 7 30.10 1019 10 16 0.00 0.00
5:53 am 05:53 Partly Cloudy 67 19.4 63 17.2 87 87 Calm 30.11 1020 10 16 0.00 0.00
6:53 am 06:53 Sunny 68 20 64 17.8 87 87 SSE 3 6 30.12 1020 10 16 0.00 0.00
7:53 am 07:53 Sunny 71 21.7 66 18.9 84 84 Calm 30.12 1020 10 16 0.00 0.00
8:53 am 08:53 Sunny 73 22.8 66 18.9 79 79 SSE 3 6 30.12 1020 10 16 0.00 0.00
9:53 am 09:53 Sunny 76 24.4 67 19.4 74 74 SSW 5 7 30.14 1021 10 16 0.00 0.00
10:53 am 10:53 undefined 79 26.1 68 20 69 69 SSE 8 13 30.14 1021 10 16 0.00 0.00
11:53 am 11:53 undefined 82 27.8 64 17.8 55 55 SW 8 13 30.13 1020 10 16 0.00 0.00
12:53 pm 12:53 undefined 85 29.4 62 16.7 46 46 SW 13 20 30.10 1019 10 16 0.00 0.00
1:53 pm 13:53 undefined 84 28.9 61 16.1 46 46 SSW 12 19 30.08 1019 10 16 0.00 0.00
2:53 pm 14:53 undefined 86 30 60 15.6 42 42 SSW 16 26 30.04 1017 10 16 0.00 0.00
3:53 pm 15:53 undefined 86 30 58 14.4 39 39 SSW 16 26 29.99 1016 10 16 0.00 0.00
4:53 pm 16:53 undefined 85 29.4 58 14.4 40 40 SSW 14 22 29.97 1015 10 16 0.00 0.00
5:53 pm 17:53 undefined 83 28.3 59 15 44 44 S 7 11 29.98 1015 10 16 0.00 0.00
6:53 pm 18:53 undefined 80 26.7 61 16.1 52 52 S 3 6 29.98 1015 10 16 0.00 0.00
7:53 pm 19:53 undefined 73 22.8 62 16.7 69 69 SSE 5 7 29.98 1015 10 16 0.00 0.00
8:53 pm 20:53 undefined 72 22.2 62 16.7 71 71 SE 5 7 29.99 1016 10 16 0.00 0.00
9:53 pm 21:53 undefined 68 20 61 16.1 78 78 ESE 6 9 29.98 1015 10 16 0.00 0.00
10:53 pm 22:53 undefined 71 21.7 63 17.2 76 76 SE 9 15 29.98 1015 10 16 0.00 0.00
11:53 pm 23:53 undefined 73 22.8 63 17.2 71 71 S 8 13 29.98 1015 10 16 0.00 0.00

Powered by AerisWeather